Location: Dollbergen
(52.4084°N, 10.1827°E)
Time: 21:40:47
(UTC+00:00)

Daily predictions for brighter satellites

Satellite Brightness Start Highest point End
(mag) Time Altitude Azimuth Time Altitude Azimuth Time Altitude Azimuth
ATLAS 2AS CENTAUR R/B 3.4 16:48:59 10° WSW 16:55:45 51° NNW 17:02:23 10° NE
Cosmos 2016 Rocket 4.0 16:51:11 10° N 16:57:27 73° ENE 17:03:44 10° SSE
SPOT 1/Viking Rocket 3.5 16:54:49 10° SSE 16:59:54 70° ENE 17:05:02 10° N
Cosmos 1980 4.0 16:55:34 10° NNW 17:01:03 48° NE 17:06:31 10° SE
COSMOS 2428 2.8 16:56:16 10° NNW 17:02:02 86° ENE 17:07:47 10° SSE
Cosmos 2242 Rocket 3.5 16:58:11 10° S 17:02:33 75° E 17:06:56 10° NNE
Cosmos 1802 Rocket 4.2 16:59:43 10° N 17:06:09 86° W 17:12:35 10° S
Cosmos 2237 Rocket 2.5 17:00:57 10° NNW 17:06:28 49° NE 17:11:58 10° SE
Cosmos 1674 Rocket 3.9 17:02:22 10° SSE 17:06:31 43° E 17:10:43 10° NNE
SMAP 4.2 17:02:02 10° S 17:06:33 50° W 17:11:06 10° NNW
Lacrosse 5 rocket 0.9 17:04:16 10° WSW 17:07:44 85° SSE 17:11:21 10° ENE
Cosmos 2285 Rocket 4.2 17:01:41 10° NNW 17:08:03 57° ENE 17:14:20 10° SE
IRS-P3 4.1 17:03:04 10° SSE 17:08:23 80° ENE 17:13:45 10° NNW
Cosmos 2233 Rocket 4.0 17:06:05 10° N 17:12:22 71° ENE 17:18:39 10° SSE
Cosmos 2219 Rocket 4.2 17:07:48 10° NW 17:12:45 33° WSW 17:17:40 10° S
SJ-6B 3.9 17:14:57 10° ESE 17:17:23 18° ENE 17:19:50 10° NNE
Cosmos 1441 Rocket 4.4 17:14:30 10° SW 17:17:38 37° WNW 17:20:47 10° N
CARTOSAT-1 3.9 17:15:36 10° SE 17:19:31 39° ENE 17:23:27 10° N
USA 267 3.3 17:13:01 10° ENE 17:19:36 82° SSE 17:26:11 10° WSW
Cosmos 1867 3.6 17:14:11 10° SW 17:19:37 87° SE 17:25:08 10° NE
Cosmos 1725 Rocket 4.3 17:13:35 10° NNW 17:19:49 77° W 17:26:05 10° S
Aureole 3 Rocket 3.1 17:17:18 10° N 17:21:22 40° ENE 17:24:34 10° SE
NOSS 0 Rocket 4.0 17:16:46 10° NNW 17:23:04 87° WSW 17:29:18 10° SSE
Cosmos 2322 4.3 17:18:48 10° NW 17:24:27 62° WSW 17:30:04 10° SSE
SJ-7 4.3 17:21:16 10° SE 17:24:49 48° ENE 17:28:23 10° N
UNK 4.3 17:21:11 10° N 17:25:42 61° WNW 17:30:13 10° SSW
Cosmos 2151 Rocket 3.8 17:25:42 10° NNW 17:30:12 79° W 17:34:42 10° S
SL-16 R/B 3.1 17:26:18 10° NNW 17:31:15 29° NE 17:35:24 13° E
Meteor 1-31 Rocket 4.2 17:32:45 15° ENE 17:33:01 15° ENE 17:35:04 10° NNE
Cosmos 1814 Rocket 4.1 17:28:16 10° SSW 17:33:34 87° WNW 17:38:50 10° NNE
Cosmos 2227 Rocket 3.5 17:30:53 10° SE 17:34:33 18° E 17:36:55 14° ENE
SAR-Lupe-1 4.5 17:32:27 10° S 17:35:59 67° WSW 17:39:35 10° NNW
Cosmos 1315 Rocket 3.8 17:33:44 10° NNW 17:37:24 48° W 17:41:04 10° S
Cosmos 2061 Rocket 4.1 17:31:11 10° N 17:37:37 90° SSW 17:43:56 10° S
ATLAS 5 CENTAUR R/B 4.2 17:34:12 10° WNW 17:37:43 24° WSW 17:41:50 10° S
Cosmos 1125 Rocket 3.5 17:32:32 10° NNW 17:37:45 87° WSW 17:42:57 10° SSE
SL-19 R/B 4.4 17:32:25 10° SSE 17:38:29 66° ENE 17:44:19 10° NNW
Cosmos 1607 3.9 17:32:48 10° SW 17:38:57 80° SE 17:45:11 10° NE
SL-16 R/B 4.0 17:35:23 10° N 17:41:01 38° WNW 17:46:38 10° WSW
Cosmos 1455 Rocket 3.2 17:37:58 10° N 17:42:11 49° ENE 17:46:21 10° SSE
ARIANE 6 FM1 Upper Stage 3.6 17:39:06 10° NW 17:42:39 30° NNE 17:44:44 19° ENE
CZ-4C R/B 1.8 17:40:26 10° SW 17:44:45 76° SE 17:50:06 11° NE
DNEPR-1 R/B 4.1 17:40:38 10° NW 17:45:13 54° NE 17:49:52 14° ESE
USA 306 4.3 17:43:38 10° W 17:45:17 14° SW 17:46:38 10° S
NOSS 3-3 (C) 3.8 17:40:09 10° SSW 17:45:20 60° SE 17:51:20 11° NE
BREEZE-M DEB (TANK) 4.0 17:41:12 10° W 17:45:20 49° SSW 17:52:01 10° SE
Cosmos 1975 Rocket 4.0 17:42:19 10° SE 17:45:48 24° E 17:49:17 10° NE
YAOGAN 1 2.8 17:42:56 10° S 17:47:12 74° WSW 17:51:28 10° NNW
Cosmos 158 Rocket 4.1 17:43:33 10° SSW 17:48:23 71° WNW 17:53:17 10° NNE
YAOGAN 3 4.5 17:44:32 10° SSE 17:48:41 62° ENE 17:52:52 10° N
SeaSat 1 3.9 17:44:29 10° S 17:49:06 41° WSW 17:53:44 10° NW
Cosmos 1464 Rocket 4.3 17:44:39 10° N 17:50:47 46° ENE 17:56:49 10° SE
NOAA 6 4.0 17:49:55 10° SSE 17:55:04 84° ENE 18:00:16 10° NNW
COSMO-SKYMED 1 2.3 17:51:08 10° NNE 17:55:16 69° ESE 17:59:21 10° S
Spot 4 Rocket 4.1 17:50:33 10° SSE 17:55:40 81° WSW 18:00:49 10° NNW
Cosmos 2228 3.3 17:51:49 10° N 17:55:46 39° ENE 17:59:43 10° SE
Okean 1 Rocket 3.5 17:52:04 10° NNW 17:56:27 65° W 18:00:46 10° S
CZ-4 R/B 2.7 17:58:02 19° NE 17:58:02 19° NE 18:00:12 10° NNE
PSLV R/B 3.4 17:53:38 10° SSE 17:57:46 87° WSW 18:01:53 10° NNW
Okean 2 Rocket 3.9 17:54:28 10° NNW 17:58:46 54° W 18:03:01 10° S
CZ-4B R/B 4.3 17:58:27 21° ENE 17:59:38 22° NE 18:03:39 10° N
Cosmos 2221 Rocket 3.6 17:56:13 10° S 18:00:41 89° E 18:05:14 10° N
SPOT 5 3.5 18:00:21 19° ESE 18:03:15 35° ENE 18:07:51 10° N
Cosmos 773 Rocket 4.4 17:59:19 10° S 18:04:12 40° ESE 18:08:54 11° NE
BREEZE-M (TANK) 3.8 18:04:47 10° W 18:07:16 34° SSW 18:12:02 13° SE
Radarsat Rocket 4.4 18:02:58 10° S 18:08:49 69° WSW 18:15:11 10° NNW
CZ-2D R/B 4.4 18:07:17 10° S 18:11:04 47° W 18:14:58 10° NNW
RESURS DK-1 4.2 18:09:02 10° N 18:11:22 16° NNE 18:11:22 16° NNE
Cosmos 2082 Rocket 4.5 18:10:04 10° NW 18:12:44 13° NNW 18:15:24 10° NNE
NOSS 3-3 (A) 3.8 18:07:36 10° SW 18:12:55 88° NW 18:18:19 15° NE
CSL-04 Rocket 3.9 18:11:32 16° SE 18:15:24 46° ENE 18:20:25 10° N
ATLAS CENTAUR R/B 3.1 18:15:29 10° N 18:15:56 11° N 18:15:56 11° N
IRAS Rocket 4.2 18:11:44 10° SSE 18:17:21 85° ENE 18:23:01 10° NNW
Cosmos 2297 Rocket 2.1 18:12:58 10° SSW 18:18:37 74° ESE 18:24:16 10° NNE
Cosmos 1943 4.2 18:15:29 10° NNW 18:20:23 28° NE 18:21:39 26° ENE
Cosmos 1025 Rocket 4.1 18:16:43 10° SSW 18:20:53 47° WNW 18:25:07 10° N
Cosmos 836 Rocket 4.5 18:16:22 10° S 18:21:35 64° ESE 18:26:50 10° NNE
Orbus 7S? 4.4 18:12:59 10° WNW 18:22:17 75° SW 18:24:45 27° SE
Cosmos 2150 Rocket 3.8 18:17:11 10° NNW 18:22:24 83° ENE 18:27:13 12° SSE
Resurs 01 Rocket 1.9 18:18:57 10° S 18:23:19 69° WSW 18:27:45 10° NNW
Cosmos 2298 Rocket 3.9 18:19:25 10° NNW 18:24:45 82° ENE 18:29:31 13° SSE
NOSS 3-4 (A) 4.0 18:23:36 10° NW 18:30:11 72° SW 18:37:51 11° SSE
NOSS 3-4 (C) 4.0 18:23:52 10° NW 18:30:29 73° SW 18:38:02 11° SSE
Cosmos 2344 4.0 18:24:18 10° S 18:31:10 35° ESE 18:32:55 31° E
Cosmos 1782 2.4 18:27:56 10° N 18:31:32 66° ENE 18:31:36 66° E
CRYOSAT 2 4.4 18:29:54 10° N 18:34:49 79° W 18:39:42 10° SSW
CZ-4B R/B 3.6 18:43:53 58° SSE 18:44:37 84° ENE 18:48:32 10° NNW
Lacrosse 5 rocket 1.8 18:41:27 10° W 18:44:49 41° N 18:44:56 40° N
PAYLOAD B 4.3 18:45:54 43° ESE 18:47:22 56° ENE 18:52:50 10° N
ATLAS 2AS CENTAUR R/B 3.9 18:41:59 10° WNW 18:48:05 32° N 18:51:31 21° NE
Cosmos 2263 Rocket 3.2 18:43:35 10° S 18:46:41 28° SSE 18:46:41 28° SSE
Terra 2.9 18:51:38 29° NNE 18:51:38 29° NNE 18:54:30 10° N
Cosmos 2237 Rocket 3.6 18:45:13 10° NW 18:50:26 38° WSW 18:55:37 10° S
SJ-6B 3.7 18:47:13 10° S 18:50:31 42° W 18:53:49 10° NNW
TSX-5 4.2 18:47:51 10° NNW 18:53:18 67° NE 18:53:39 64° E
Okean O Rocket 3.7 19:01:58 16° NNE 19:01:58 16° NNE 19:03:01 10° N
Cosmos 44 Rocket 3.2 18:56:55 10° SW 19:01:52 78° SE 19:02:16 73° E
USA 267 3.5 18:59:48 36° ENE 19:02:33 64° N 19:09:00 10° W
ERS-1 Rocket 3.3 19:04:25 48° NNE 19:04:25 48° NNE 19:08:25 10° N
Meteor 1-31 Rocket 3.7 19:06:45 38° NW 19:06:45 38° NW 19:09:09 10° NNW
Cosmos 1816 Rocket 4.4 18:59:55 10° S 19:06:05 89° WNW 19:12:22 10° N
Cosmos 2034 Rocket 3.9 19:01:47 10° NNW 19:07:58 83° W 19:13:44 12° S
ADEOS 3.5 19:12:55 68° NE 19:12:55 68° NE 19:17:46 10° NNW
Cosmos 1544 Rocket 3.7 19:10:17 10° NNW 19:14:21 68° WNW 19:14:21 68° WNW
SL-16 R/B 2.3 19:10:14 10° NNW 19:15:54 74° WSW 19:17:18 51° S
Cosmos 1634 Rocket 3.9 19:10:01 10° N 19:16:22 70° ENE 19:17:03 64° ESE
Cosmos 2227 Rocket 2.1 19:12:08 10° SSW 19:17:47 88° ESE 19:18:49 62° NNE
ARIANE 6 FM1 Upper Stage 3.7 19:18:02 10° NW 19:20:45 41° WNW 19:20:45 41° WNW
Cosmos 1975 Rocket 4.1 19:19:08 10° SW 19:23:17 43° WNW 19:27:26 10° N
Gblst 52 Del rocket 4.4 19:23:14 10° W 19:30:36 81° S 19:31:10 75° SE
CZ-4 R/B 3.2 19:33:01 25° NW 19:33:01 25° NW 19:34:49 10° NNW
CZ-4C R/B 3.3 19:28:59 10° W 19:33:30 37° NNW 19:35:03 31° NNE
MetOp-B 4.3 19:39:24 67° NNW 19:39:24 67° NNW 19:44:04 10° NNW
CZ-4B R/B 3.3 19:40:18 68° NW 19:40:18 68° NW 19:45:01 10° NNW
Cosmos 2279 Rocket 4.2 19:34:05 10° N 19:39:08 58° NNE 19:39:08 58° NNE
SPOT 5 4.0 19:39:23 31° SW 19:41:06 41° W 19:45:55 10° NNW
MOS 1 4.4 19:43:59 71° WSW 19:44:06 71° WSW 19:49:48 10° NNW
Cosmos 2082 Rocket 4.5 19:56:54 10° NNW 19:59:23 13° NNE 19:59:23 13° NNE
Cosmos 2297 Rocket 3.9 19:58:16 10° W 20:03:12 30° NW 20:06:06 19° N
Cosmos 1943 4.0 19:59:18 10° NNW 20:03:25 49° NW 20:03:25 49° NW
Terra 4.1 20:30:15 21° NW 20:30:15 21° NW 20:32:04 10° NNW
Cosmos 2263 Rocket 4.3 20:27:02 10° SW 20:28:28 18° WSW 20:28:28 18° WSW
ATLAS 2AS CENTAUR R/B 3.8 20:34:11 10° NW 20:38:56 36° N 20:38:56 36° N
Cosmos 2344 4.0 20:37:32 10° WSW 20:43:00 49° W 20:43:00 49° W
USA 267 4.1 20:47:08 46° NW 20:47:08 46° NW 20:51:44 10° WNW
Cosmos 2227 Rocket 4.3 20:57:54 10° W 21:00:43 22° WNW 21:00:43 22° WNW
